This is the latest recevied weather packets stored in our database for station/object K7FLA. If no packets are shown the sender has not sent any weather packets the latest 10 day(s).
| Time | Temp. | Humidity | Pressure | Rain* | Wind** | Luminosity | Snow |
|---|---|---|---|---|---|---|---|
| 1777475980 | 21.11° C | 40% | 1097.5 hPa | 0 mm | - | 314 W/m² | - |
| 1777475677 | 20.56° C | 43% | 1097.8 hPa | 0 mm | - | 296 W/m² | - |
| 1777475373 | 20° C | 44% | 1097.5 hPa | 0 mm | - | 279 W/m² | - |
| 1777475068 | 20° C | 44% | 1097.7 hPa | 0 mm | - | 261 W/m² | - |
| 1777474766 | 18.89° C | 48% | 1097.6 hPa | 0 mm | - | 243 W/m² | - |
| 1777474461 | 17.78° C | 52% | 1097.5 hPa | 0 mm | - | 226 W/m² | - |
| 1777474158 | 17.22° C | 55% | 1097.7 hPa | 0 mm | - | 209 W/m² | - |
| 1777473856 | 17.22° C | 55% | 1097.7 hPa | 0 mm | - | 193 W/m² | - |
| 1777473553 | 16.67° C | 56% | 1097.7 hPa | 0 mm | - | 176 W/m² | - |
| 1777473248 | 16.11° C | 57% | 1097.6 hPa | 0 mm | - | 160 W/m² | - |
| 1777472945 | 15.56° C | 62% | 1097.6 hPa | 0 mm | - | 141 W/m² | - |
| 1777472641 | 15° C | 63% | 1097.4 hPa | 0 mm | - | 132 W/m² | - |
| 1777472338 | 14.44° C | 65% | 1097.5 hPa | 0 mm | - | 119 W/m² | - |
| 1777472036 | 13.89° C | 66% | 1097.4 hPa | 0 mm | - | 105 W/m² | - |
| 1777471730 | 13.33° C | 69% | 1097.5 hPa | 0 mm | - | 93 W/m² | - |
| 1777471427 | 12.22° C | 70% | 1097.7 hPa | 0 mm | - | 81 W/m² | - |
| 1777471124 | 11.67° C | 71% | 1097.4 hPa | 0 mm | - | 69 W/m² | - |
| 1777470821 | 10.56° C | 72% | 1097.6 hPa | 0 mm | - | 59 W/m² | - |
| 1777470518 | 10° C | 73% | 1097.3 hPa | 0 mm | - | 50 W/m² | - |
| 1777470214 | 9.44° C | 76% | 1097.7 hPa | 0 mm | - | 42 W/m² | - |
| 1777469911 | 8.89° C | 76% | 1097.8 hPa | 0 mm | - | 34 W/m² | - |
| 1777469611 | 8.89° C | 77% | 1097.8 hPa | 0 mm | - | 25 W/m² | - |
| 1777469306 | 8.33° C | 78% | 1097.6 hPa | 0 mm | - | 21 W/m² | - |
| 1777469002 | 8.33° C | 78% | 1097.7 hPa | 0 mm | - | 18 W/m² | - |
| 1777468697 | 8.33° C | 79% | 1097.6 hPa | 0 mm | - | 14 W/m² | - |
* Rain latest hour (hover to see other rain measurements)
** Current wind speed in m/s (hover to see current wind gust speed)